Location: ?????
(37.7324°N, 23.9257°E)
Time: 22:12:36
(UTC+00:00)

Cosmos 1862 - Pass Details

Date: 29 November 2020
Orbit: 537 x 556 km, 82.5° (Epoch: 18 January)

Event Time Altitude Azimuth Distance (km) Brightness Sun altitude
Rises 03:42:07 0° 177° (S) 2,719 7.1 -18.8°
Reaches altitude 10° 03:44:17 10° 173° (S) 1,831 6.2 -18.4°
Maximum altitude 03:48:15 58° 94° (E) 651 3.9 -17.6°
Drops below altitude 10° 03:52:15 10° 15° (NNE) 1,848 6.0 -16.9°
Sets 03:54:27 0° 12° (NNE) 2,747 6.9 -16.4°
